QPF
0.00 0.00 0.00 0.00 0.00 0.00 0.00 0.00 0.00 0.00 0.00 0.00 0.00 0.00 0.00 0.00 0.00 0.00 0.00 0.00 0.00 0.00 0.00 0.00 0.00 0.00 0.00 0.00 0.00 0.00 0.00 0.00 0.00 0.00 0.00 0.00 0.00 0.00 0.00 0.00 0.00 0.00 0.00 0.00 0.00
0.00 0.00 0.00 0.00 0.00 0.00 0.00 0.00 0.00 0.00 0.00 0.00 0.00 0.00 0.00 0.00 0.00 0.00 0.00 0.00 0.00 0.00 0.00 0.00 0.00 0.00 0.00 0.00 0.00 0.00 0.00 0.00 0.00 0.00 0.00 0.00 0.00 0.00 0.00 0.00 0.00 0.00 0.00 0.00 0.00
0.00 0.00 0.00 0.00 0.00 0.00 0.00 0.00 0.00 0.00 0.00 0.00 0.00 0.00 0.00 0.00 0.00 0.00 0.00 0.00 0.00 0.00 0.00 0.00 0.00 0.00 0.00 0.00 0.00 0.00 0.00 0.00 0.00 0.00 0.00 0.00 0.00 0.00 0.00 0.00 0.00 0.00 0.00 0.00 0.00
0.00 0.00 0.00 0.00 0.00 0.00 0.00 0.00 0.00 0.00 0.00 0.00 0.00 0.00 0.00 0.00 0.00 0.00 0.00 0.00 0.00 0.00 0.00 0.00 0.00 0.00 0.00 0.00 0.00 0.00 0.00 0.00 0.00 0.00 0.00 0.00 0.00 0.00 0.00 0.00 0.00 0.00 0.00 0.00 0.00
0.00 0.00 0.00 0.00 0.00 0.00 0.00 0.00 0.00 0.00 0.00 0.00 0.00 0.00 0.00 0.00 0.00 0.00 0.00 0.00 0.00 0.00 0.00 0.00 0.00 0.00 0.00 0.00 0.00 0.00 0.00 0.00 0.00 0.00 0.00 0.00 0.00 0.00 0.00 0.00 0.00 0.00 0.00 0.00 0.00
0.00 0.00 0.00 0.00 0.00 0.00 0.00 0.00 0.00 0.00 0.00 0.00 0.00 0.00 0.00 0.00 0.00 0.00 0.00 0.00 0.00 0.00 0.00 0.00 0.00 0.00 0.00 0.00 0.00 0.00 0.00 0.00 0.00 0.00 0.00 0.00 0.00 0.00 0.01 0.03 0.00 0.00 0.00 0.00 0.00
0.00 0.00 0.00 0.00 0.00 0.00 0.00 0.00 0.00 0.00 0.00 0.00 0.00 0.00 0.00 0.00 0.00 0.00 0.00 0.00 0.00 0.00 0.00 0.00 0.00 0.00 0.00 0.00 0.00 0.00 0.00 0.00 0.00 0.00 0.00 0.00 0.00 0.00 0.00 0.01 0.00 0.01 0.00 0.00 0.00
0.00 0.00 0.00 0.00 0.00 0.00 0.00 0.00 0.00 0.00 0.00 0.00 0.00 0.00 0.00 0.00 0.00 0.00 0.00 0.00 0.00 0.00 0.00 0.00 0.00 0.00 0.00 0.00 0.00 0.00 0.00 0.00 0.00 0.00 0.00 0.00 0.00 0.00 0.00 0.01 0.03 0.01 0.01 0.00 0.00
0.00 0.00 0.00 0.00 0.00 0.00 0.00 0.00 0.00 0.00 0.00 0.00 0.00 0.00 0.00 0.00 0.00 0.00 0.00 0.00 0.00 0.00 0.00 0.00 0.00 0.00 0.00 0.00 0.00 0.00 0.00 0.00 0.00 0.00 0.00 0.00 0.00 0.00 0.00 0.00 0.00 0.00 0.00 0.00 0.00
0.00 0.00 0.00 0.00 0.00 0.00 0.00 0.00 0.00 0.00 0.00 0.00 0.00 0.00 0.00 0.00 0.00 0.00 0.00 0.00 0.00 0.00 0.00 0.00 0.00 0.00 0.00 0.00 0.00 0.00 0.00 0.00 0.00 0.00 0.00 0.00 0.00 0.00 0.00 0.00 0.00 0.00 0.00 0.00 0.00
0.00 0.00 0.00 0.00 0.00 0.00 0.00 0.00 0.00 0.00 0.00 0.00 0.00 0.00 0.00 0.00 0.00 0.00 0.00 0.00 0.00 0.00 0.00 0.00 0.00 0.00 0.00 0.00 0.00 0.00 0.00 0.00 0.00 0.00 0.00 0.00 0.00 0.00 0.00 0.00 0.00 0.00 0.00 0.00 0.00
0.00 0.00 0.00 0.00 0.00 0.00 0.00 0.00 0.00 0.00 0.00 0.00 0.00 0.00 0.00 0.00 0.00 0.00 0.00 0.00 0.00 0.00 0.00 0.00 0.00 0.00 0.00 0.00 0.00 0.00 0.00 0.00 0.00 0.00 0.00 0.00 0.00 0.00 0.00 0.00 0.00 0.00 0.00 0.00 0.00
0.00 0.00 0.00 0.00 0.00 0.00 0.00 0.00 0.00 0.00 0.00 0.00 0.00 0.00 0.00 0.00 0.00 0.00 0.00 0.00 0.00 0.00 0.00 0.00 0.00 0.00 0.00 0.00 0.00 0.00 0.00 0.00 0.00 0.00 0.00 0.00 0.00 0.00 0.00 0.00 0.00 0.00 0.00 0.00 0.00
0.00 0.00 0.00 0.00 0.00 0.00 0.00 0.00 0.00 0.00 0.00 0.00 0.00 0.00 0.00 0.00 0.00 0.00 0.00 0.00 0.00 0.00 0.00 0.00 0.00 0.00 0.00 0.00 0.00 0.00 0.00 0.00 0.00 0.00 0.00 0.00 0.00 0.00 0.00 0.00 0.00 0.00 0.00 0.00 0.00
0.00 0.00 0.00 0.00 0.00 0.00 0.00 0.00 0.00 0.00 0.00 0.00 0.00 0.00 0.00 0.00 0.00 0.00 0.00 0.00 0.00 0.00 0.00 0.00 0.00 0.00 0.00 0.00 0.00 0.00 0.00 0.00 0.00 0.00 0.00 0.00 0.00 0.00 0.00 0.00 0.00 0.00 0.00 0.00 0.00
0.00 0.00 0.00 0.00 0.00 0.00 0.00 0.00 0.00 0.00 0.00 0.00 0.00 0.00 0.00 0.00 0.00 0.00 0.00 0.00 0.00 0.00 0.00 0.00 0.00 0.00 0.00 0.00 0.00 0.00 0.00 0.00 0.00 0.00 0.00 0.00 0.00 0.00 0.00 0.00 0.00 0.00 0.00 0.00 0.00
0.00 0.00 0.00 0.00 0.00 0.00 0.00 0.00 0.00 0.00 0.00 0.00 0.00 0.00 0.00 0.00 0.00 0.00 0.00 0.00 0.00 0.00 0.00 0.00 0.00 0.00 0.00 0.00 0.00 0.00 0.00 0.00 0.00 0.00 0.00 0.00 0.00 0.00 0.00 0.00 0.00 0.00 0.00 0.00 0.00
0.00 0.00 0.00 0.00 0.00 0.00 0.00 0.00 0.00 0.00 0.00 0.00 0.00 0.00 0.00 0.00 0.00 0.00 0.00 0.00 0.00 0.00 0.00 0.00 0.00 0.00 0.00 0.00 0.00 0.00 0.00 0.00 0.00 0.00 0.00 0.00 0.00 0.00 0.00 0.00 0.00 0.00 0.00 0.00 0.00
0.00 0.00 0.00 0.00 0.00 0.00 0.00 0.01 0.00 0.00 0.00 0.00 0.00 0.00 0.00 0.00 0.00 0.00 0.00 0.00 0.00 0.00 0.00 0.00 0.00 0.00 0.00 0.00 0.00 0.00 0.00 0.00 0.00 0.00 0.00 0.00 0.00 0.00 0.00 0.00 0.00 0.00 0.00 0.00 0.00
0.00 0.00 0.00 0.00 0.00 0.00 0.00 0.00 0.00 0.00 0.00 0.00 0.00 0.00 0.00 0.00 0.00 0.00 0.00 0.00 0.00 0.00 0.00 0.00 0.00 0.00 0.00 0.00 0.00 0.00 0.00 0.00 0.00 0.00 0.00 0.00 0.00 0.00 0.00 0.00 0.00 0.00 0.00 0.00 0.00
0.00 0.00 0.00 0.00 0.00 0.00 0.01 0.00 0.00 0.00 0.00 0.00 0.00 0.00 0.00 0.00 0.00 0.00 0.00 0.00 0.00 0.00 0.00 0.00 0.00 0.00 0.00 0.00 0.00 0.00 0.00 0.00 0.00 0.00 0.00 0.00 0.00 0.00 0.00 0.00 0.00 0.00 0.00 0.00 0.00
0.00 0.00 0.00 0.00 0.00 0.00 0.00 0.00 0.00 0.00 0.00 0.00 0.00 0.00 0.00 0.00 0.00 0.00 0.00 0.00 0.00 0.00 0.00 0.00 0.00 0.00 0.00 0.00 0.00 0.00 0.00 0.00 0.00 0.00 0.00 0.00 0.00 0.00 0.00 0.00 0.00 0.00 0.00 0.00 0.00
0.00 0.00 0.00 0.00 0.00 0.00 0.00 0.00 0.00 0.00 0.00 0.00 0.00 0.00 0.00 0.00 0.00 0.00 0.00 0.00 0.00 0.00 0.00 0.00 0.00 0.00 0.00 0.00 0.00 0.00 0.00 0.00 0.00 0.00 0.00 0.00 0.00 0.00 0.00 0.00 0.00 0.00 0.00 0.00 0.00
0.00 0.00 0.00 0.00 0.00 0.00 0.00 0.00 0.00 0.00 0.00 0.00 0.00 0.00 0.00 0.00 0.00 0.00 0.00 0.00 0.00 0.00 0.00 0.00 0.00 0.00 0.00 0.00 0.00 0.00 0.00 0.00 0.00 0.00 0.00 0.00 0.00 0.00 0.00 0.00 0.00 0.00 0.00 0.00 0.00
0.00 0.00 0.00 0.00 0.00 0.00 0.00 0.00 0.00 0.00 0.00 0.00 0.00 0.00 0.00 0.00 0.00 0.00 0.00 0.00 0.00 0.00 0.00 0.00 0.00 0.00 0.00 0.00 0.00 0.00 0.00 0.00 0.00 0.00 0.00 0.00 0.00 0.00 0.00 0.00 0.00 0.00 0.00 0.00 0.00
0.01 0.01 0.00 0.00 0.00 0.00 0.00 0.00 0.00 0.00 0.00 0.00 0.00 0.00 0.00 0.00 0.00 0.00 0.00 0.00 0.00 0.00 0.00 0.00 0.00 0.00 0.00 0.00 0.00 0.00 0.00 0.00 0.00 0.00 0.00 0.00 0.00 0.00 0.00 0.00 0.00 0.00 0.00 0.00 0.00
0.01 0.00 0.01 0.00 0.00 0.00 0.00 0.00 0.00 0.00 0.00 0.00 0.00 0.00 0.00 0.00 0.00 0.00 0.00 0.00 0.00 0.00 0.00 0.00 0.00 0.00 0.00 0.00 0.00 0.00 0.00 0.00 0.00 0.00 0.00 0.00 0.00 0.00 0.00 0.00 0.00 0.00 0.00 0.00 0.00
MSLP
1022.55 1021.98 1021.41 1020.85 1020.39 1019.84 1019.31 1018.72 1018.16 1017.67 1017.07 1016.53 1015.98 1015.40 1014.78 1014.22 1013.21 1011.25 1010.13 1008.74 1008.49 1008.55 1008.46 1007.67 1006.74 1005.87 1005.40 1004.93 1004.51 1003.86 1003.11 1001.56 1000.06 998.82 998.09 998.32 1000.17 998.98 999.51 1000.81 1002.36 1002.96 1004.96 1007.35 1009.29
1022.68 1022.25 1021.63 1021.09 1020.50 1019.90 1019.36 1018.81 1018.21 1017.47 1016.83 1016.31 1015.83 1015.30 1014.70 1014.15 1012.86 1010.19 1008.23 1008.47 1008.56 1008.58 1008.12 1007.14 1005.92 1005.07 1004.70 1004.10 1003.62 1003.31 1002.57 1001.29 1000.06 998.91 997.98 998.52 999.63 998.26 1000.43 1001.96 1003.94 1005.64 1007.00 1008.63 1009.89
1022.77 1022.19 1021.67 1021.13 1020.53 1019.96 1019.33 1018.74 1018.15 1017.39 1016.68 1016.07 1015.59 1015.02 1014.52 1014.19 1011.70 1007.83 1008.31 1008.27 1008.32 1008.45 1008.27 1007.40 1006.23 1005.24 1004.08 1003.37 1002.93 1002.41 1001.91 1000.99 999.80 999.20 998.61 998.27 998.77 999.84 1000.81 1002.49 1004.05 1006.20 1007.59 1008.90 1009.62
1022.80 1022.21 1021.61 1020.97 1020.33 1019.72 1019.06 1018.36 1017.69 1017.03 1016.40 1015.79 1015.19 1014.70 1014.31 1013.62 1009.90 1007.74 1007.99 1007.89 1008.15 1008.03 1007.77 1006.97 1005.98 1005.21 1004.21 1003.25 1002.45 1001.67 1001.30 1000.67 1000.03 999.72 999.65 999.33 999.49 1000.13 1000.88 1002.17 1003.96 1006.16 1007.59 1008.30 1008.85
1022.89 1022.17 1021.46 1020.77 1020.09 1019.41 1018.72 1018.02 1017.28 1016.61 1016.04 1015.42 1014.92 1014.60 1013.73 1011.49 1008.14 1007.53 1007.72 1007.74 1007.73 1007.47 1006.86 1006.24 1005.48 1004.66 1003.79 1002.99 1002.13 1001.09 1000.76 1000.44 1000.03 1000.04 1000.52 1000.20 1000.62 1001.39 1002.31 1002.79 1004.34 1006.11 1007.37 1007.82 1008.14
1022.80 1022.06 1021.30 1020.51 1019.72 1018.98 1018.26 1017.50 1016.86 1016.16 1015.54 1014.91 1014.51 1014.48 1013.29 1009.77 1006.45 1006.49 1006.85 1006.89 1006.76 1006.23 1005.91 1005.62 1005.00 1004.29 1003.59 1002.77 1001.93 1001.03 1000.45 1000.11 1000.02 1000.32 1000.84 1000.76 1001.24 1002.37 1003.98 1004.44 1005.08 1005.98 1006.81 1007.34 1007.65
1022.66 1021.90 1021.11 1020.23 1019.36 1018.50 1017.67 1016.92 1016.25 1015.60 1014.96 1014.39 1014.07 1013.76 1011.54 1008.13 1006.22 1006.46 1006.53 1006.63 1006.27 1005.85 1005.45 1004.95 1004.75 1004.45 1003.78 1003.34 1002.24 1001.39 1000.73 1000.03 1000.03 1000.52 1000.97 1001.13 1002.07 1003.37 1004.73 1005.45 1005.71 1006.13 1006.69 1007.16 1007.54
1022.66 1021.79 1020.85 1019.85 1018.84 1017.84 1016.90 1016.09 1015.54 1014.89 1014.36 1013.93 1013.98 1013.04 1009.74 1006.59 1006.30 1006.21 1006.21 1006.08 1005.99 1005.85 1005.77 1005.45 1005.26 1005.04 1004.45 1003.75 1002.69 1001.72 1001.13 1000.32 1000.00 1000.53 1000.94 1001.89 1002.01 1003.97 1005.08 1005.97 1006.60 1006.82 1006.84 1007.33 1007.84
1022.64 1021.69 1020.66 1019.51 1018.35 1017.17 1016.19 1015.18 1014.63 1014.06 1013.83 1013.74 1013.56 1011.94 1008.02 1006.72 1006.25 1005.84 1005.87 1005.57 1005.35 1005.57 1005.66 1005.56 1005.57 1005.35 1004.88 1004.14 1003.15 1001.77 1000.65 1000.41 1000.11 1000.19 1000.83 1001.95 1002.08 1002.97 1005.11 1006.07 1006.70 1006.82 1007.28 1007.84 1008.46
1022.60 1021.53 1020.40 1019.13 1017.88 1016.54 1015.49 1014.00 1013.38 1013.76 1013.37 1012.69 1011.79 1010.64 1007.51 1005.70 1005.00 1005.40 1005.30 1005.34 1005.15 1005.08 1005.31 1005.43 1005.41 1004.97 1004.19 1003.51 1001.78 1001.33 1000.99 1000.40 999.55 999.54 999.99 1001.08 1002.13 1003.40 1004.94 1005.74 1006.31 1006.64 1007.36 1008.21 1008.79
1022.54 1021.45 1020.16 1018.90 1017.59 1016.16 1015.28 1012.86 1012.83 1012.99 1011.99 1009.62 1008.74 1007.43 1005.76 1005.46 1005.67 1005.31 1005.07 1005.08 1005.15 1005.03 1004.73 1004.68 1004.66 1003.64 1003.28 1002.80 1002.34 1001.51 1000.64 999.70 999.10 998.87 999.19 999.97 1001.33 1002.57 1004.19 1005.23 1005.60 1006.34 1007.21 1008.02 1008.97
1022.54 1021.36 1020.03 1018.69 1017.50 1016.11 1014.82 1013.67 1014.56 1014.61 1012.02 1009.27 1007.70 1006.81 1005.88 1005.33 1005.41 1004.80 1004.57 1005.00 1004.86 1004.42 1004.26 1004.21 1003.01 1003.26 1002.85 1002.37 1001.84 1001.59 1000.67 999.67 998.88 998.28 998.79 999.93 1000.63 1001.78 1003.17 1003.92 1004.75 1005.50 1006.52 1007.49 1008.63
1022.57 1021.26 1019.96 1018.62 1017.29 1016.04 1014.96 1015.05 1014.72 1014.42 1012.30 1007.52 1006.06 1005.55 1005.23 1005.39 1004.91 1004.63 1004.35 1004.42 1004.12 1004.10 1003.65 1002.92 1002.39 1002.21 1002.25 1002.26 1001.81 1001.10 1000.49 1000.10 999.30 998.62 998.14 999.38 1000.26 1000.75 1002.68 1003.69 1004.35 1005.16 1005.83 1006.92 1008.11
1022.57 1021.30 1019.79 1018.49 1017.48 1015.74 1015.22 1015.43 1015.24 1015.01 1012.15 1006.76 1005.58 1004.85 1005.14 1005.24 1004.55 1003.92 1003.63 1004.05 1003.87 1003.45 1003.12 1002.67 1002.34 1001.92 1001.69 1001.72 1001.91 1001.19 1000.87 1000.40 999.95 999.32 999.94 1000.81 1000.47 1001.11 1002.51 1003.49 1003.50 1004.22 1005.14 1006.44 1007.86
1022.55 1021.41 1020.04 1019.22 1018.02 1016.13 1016.51 1015.96 1015.43 1015.03 1011.00 1006.26 1005.23 1005.19 1004.79 1004.98 1003.72 1002.64 1003.45 1003.34 1003.37 1003.12 1003.25 1002.27 1002.03 1001.82 1001.43 1001.56 1001.97 1001.51 1001.65 1001.25 1000.92 1000.12 1000.18 1000.37 1000.14 1000.04 1001.21 1002.02 1002.67 1003.73 1004.96 1006.17 1007.55
1022.39 1021.28 1020.30 1018.06 1016.96 1017.24 1016.67 1016.11 1015.42 1013.94 1009.38 1005.85 1005.07 1004.88 1004.84 1004.57 1004.13 1003.19 1003.36 1003.56 1003.47 1003.53 1002.88 1002.23 1002.08 1001.48 1001.40 1001.68 1001.63 1001.92 1002.26 1002.21 1001.91 1001.26 999.92 999.82 999.58 999.61 999.25 999.59 1001.52 1003.04 1004.56 1005.78 1007.05
1021.97 1020.97 1020.11 1018.95 1018.01 1017.48 1016.75 1015.51 1014.34 1012.17 1007.89 1006.65 1006.32 1005.79 1005.04 1004.33 1003.48 1003.38 1003.48 1003.67 1003.89 1003.68 1003.08 1002.74 1001.89 1001.52 1001.59 1001.75 1001.98 1002.04 1002.40 1002.44 1002.41 1001.42 1000.08 999.68 998.70 997.61 997.94 998.04 999.56 1001.26 1002.93 1004.76 1006.36
1022.04 1020.29 1019.01 1018.11 1018.33 1017.48 1016.55 1014.91 1013.91 1011.03 1009.77 1009.28 1008.24 1007.57 1006.40 1005.23 1003.92 1003.46 1003.45 1003.59 1003.81 1004.05 1003.39 1002.35 1001.11 1000.95 1001.02 1000.87 1001.55 1001.61 1001.99 1001.95 1001.70 1001.17 1000.47 999.50 997.37 995.96 997.43 997.40 997.98 999.43 1001.49 1003.78 1005.63
1021.84 1018.93 1018.27 1018.36 1018.09 1017.38 1016.33 1014.70 1013.69 1012.96 1012.78 1011.61 1009.63 1007.68 1006.13 1005.16 1004.61 1004.10 1004.01 1004.12 1003.93 1003.96 1004.13 1003.09 1001.38 1000.53 999.79 999.96 1000.73 1000.82 1001.17 1001.09 1001.88 1001.94 1000.77 999.21 997.66 996.70 996.53 996.78 997.23 998.14 999.55 1001.65 1004.12
1021.68 1018.92 1018.32 1018.20 1017.79 1017.20 1015.96 1015.16 1014.26 1014.74 1014.24 1013.31 1011.72 1009.51 1008.18 1006.97 1006.51 1005.64 1005.80 1006.92 1006.90 1006.89 1006.53 1004.76 1003.07 1001.64 1000.40 999.87 999.65 1000.12 1001.13 1001.36 1000.97 1001.04 1000.40 999.09 997.61 996.04 995.64 995.78 996.23 996.42 997.91 1000.36 1002.63
1020.56 1018.51 1018.71 1017.67 1017.15 1016.58 1016.35 1015.83 1015.82 1015.67 1015.45 1014.78 1013.45 1012.57 1011.45 1010.33 1009.61 1008.60 1007.72 1009.38 1009.57 1008.68 1007.74 1006.83 1005.26 1003.68 1002.28 1000.41 1000.28 1000.57 1000.76 1000.97 1001.07 1000.72 1000.09 999.02 997.23 996.63 995.54 995.26 995.08 995.39 996.61 999.21 1001.44
1021.16 1019.54 1019.19 1018.21 1018.06 1018.41 1017.86 1017.55 1017.56 1016.60 1016.24 1015.97 1015.36 1014.82 1013.96 1013.30 1012.09 1011.25 1010.08 1010.71 1011.72 1010.94 1010.25 1009.85 1008.43 1005.96 1003.87 1002.33 1001.41 1000.78 1000.43 1000.55 1000.85 1000.48 999.79 998.55 996.77 996.82 995.73 995.36 995.23 995.06 996.05 998.71 1000.39
1022.41 1020.82 1019.59 1018.77 1019.25 1019.51 1018.83 1018.01 1017.78 1017.75 1017.68 1017.35 1016.85 1016.40 1016.30 1015.60 1014.67 1012.75 1012.11 1012.83 1012.88 1012.96 1013.09 1012.55 1009.92 1007.71 1005.44 1004.30 1002.78 1001.54 1000.94 1000.82 1000.72 1000.39 999.72 998.90 996.98 996.63 995.57 995.42 995.48 995.72 995.52 996.84 999.16
1023.74 1022.35 1021.28 1020.82 1020.76 1020.17 1019.59 1018.76 1018.41 1018.28 1018.57 1018.69 1018.24 1017.66 1017.28 1016.97 1016.52 1014.90 1014.03 1013.66 1014.25 1014.57 1014.68 1013.95 1012.21 1010.66 1008.40 1006.13 1004.67 1003.47 1002.23 1001.45 1000.87 1000.35 999.66 998.43 997.29 996.36 995.58 994.95 995.19 995.58 996.06 996.89 998.97
1025.20 1023.97 1023.02 1022.11 1021.42 1021.08 1020.33 1020.07 1019.25 1019.01 1019.52 1019.36 1018.63 1018.46 1018.49 1018.30 1017.61 1016.80 1016.24 1015.95 1015.46 1015.26 1014.97 1014.54 1013.45 1012.53 1010.68 1009.06 1007.08 1005.47 1004.30 1003.02 1002.05 1000.99 999.49 998.42 996.95 996.04 996.10 995.33 995.05 995.01 995.51 997.99 998.90
1026.12 1025.60 1024.66 1023.51 1022.05 1021.41 1020.86 1020.67 1020.07 1020.11 1020.41 1020.04 1019.78 1019.47 1019.72 1019.41 1018.99 1018.26 1018.24 1018.27 1017.50 1016.68 1016.12 1015.11 1014.18 1013.78 1012.09 1011.20 1009.64 1006.96 1005.37 1003.86 1002.44 1001.42 999.81 998.38 996.88 996.15 995.70 995.36 995.07 995.40 996.43 997.35 998.40
1026.58 1026.04 1025.48 1024.31 1022.77 1021.62 1021.13 1020.69 1020.72 1020.72 1020.50 1020.42 1020.21 1020.13 1019.89 1019.66 1019.57 1019.68 1019.72 1019.49 1018.90 1018.18 1017.51 1017.05 1015.91 1015.19 1013.14 1012.47 1010.53 1008.22 1005.11 1003.90 1002.48 1001.37 1000.32 998.91 997.68 996.66 995.76 995.34 995.05 995.20 995.81 996.96 997.32
Thickness
5613 5616 5618 5621 5623 5626 5628 5632 5635 5637 5640 5643 5647 5652 5658 5665 5675 5696 5701 5719 5723 5726 5730 5737 5747 5756 5761 5758 5767 5774 5744 5749 5776 5795 5816 5821 5780 5822 5825 5813 5809 5814 5799 5787 5776
5607 5609 5613 5616 5619 5622 5625 5628 5631 5635 5639 5642 5644 5647 5653 5659 5672 5693 5716 5716 5718 5720 5723 5726 5734 5748 5744 5753 5761 5752 5741 5757 5794 5814 5820 5813 5778 5796 5801 5795 5783 5779 5782 5776 5769
5601 5604 5607 5610 5614 5618 5621 5624 5627 5632 5636 5640 5643 5646 5649 5652 5672 5708 5707 5711 5714 5716 5717 5723 5732 5736 5738 5754 5756 5757 5743 5773 5791 5806 5818 5816 5809 5805 5792 5777 5780 5767 5767 5766 5765
5594 5598 5602 5606 5610 5614 5619 5623 5627 5631 5635 5638 5643 5646 5648 5652 5668 5702 5703 5707 5708 5712 5713 5715 5721 5717 5722 5730 5756 5746 5765 5775 5785 5793 5794 5796 5809 5790 5796 5790 5789 5779 5771 5768 5765
5587 5592 5597 5601 5606 5611 5616 5620 5625 5630 5633 5637 5640 5642 5651 5662 5677 5697 5699 5700 5703 5707 5708 5709 5710 5716 5713 5732 5747 5750 5762 5774 5785 5779 5783 5795 5780 5776 5777 5786 5789 5779 5769 5766 5767
5580 5585 5590 5596 5602 5608 5613 5619 5623 5628 5632 5636 5638 5638 5647 5656 5702 5700 5698 5699 5700 5705 5706 5710 5711 5722 5719 5726 5733 5755 5763 5765 5773 5767 5776 5777 5766 5769 5762 5770 5772 5771 5766 5767 5767
5574 5579 5585 5591 5598 5604 5610 5616 5621 5627 5631 5635 5637 5639 5652 5669 5699 5696 5695 5692 5698 5700 5697 5711 5715 5710 5715 5710 5738 5743 5736 5754 5760 5756 5760 5771 5742 5746 5755 5756 5755 5760 5761 5762 5763
5568 5574 5581 5588 5595 5602 5609 5616 5620 5626 5630 5632 5632 5639 5654 5692 5693 5691 5692 5690 5695 5698 5696 5702 5707 5701 5703 5718 5720 5721 5729 5716 5750 5748 5757 5749 5728 5741 5748 5741 5737 5742 5752 5753 5754
5563 5569 5576 5584 5593 5601 5609 5616 5621 5625 5627 5628 5630 5639 5658 5686 5680 5689 5689 5682 5689 5690 5691 5695 5691 5683 5690 5685 5689 5709 5701 5709 5730 5748 5745 5735 5729 5744 5739 5733 5728 5736 5739 5741 5742
5557 5564 5573 5581 5590 5600 5608 5620 5623 5620 5624 5628 5636 5636 5663 5671 5687 5685 5689 5685 5679 5680 5675 5674 5672 5668 5680 5678 5674 5691 5694 5710 5721 5747 5743 5727 5728 5725 5726 5726 5725 5730 5730 5729 5730
5550 5558 5568 5577 5586 5597 5604 5622 5627 5624 5626 5645 5651 5654 5670 5678 5679 5675 5682 5676 5673 5669 5656 5668 5656 5660 5673 5685 5693 5699 5704 5713 5732 5754 5741 5733 5731 5723 5721 5723 5724 5724 5722 5722 5721
5543 5552 5562 5572 5580 5590 5601 5609 5598 5597 5612 5638 5650 5656 5665 5672 5655 5668 5680 5659 5658 5652 5663 5657 5658 5671 5681 5686 5688 5687 5690 5703 5733 5756 5741 5727 5724 5725 5717 5723 5725 5723 5721 5720 5717
5534 5544 5555 5565 5574 5584 5591 5588 5589 5591 5602 5643 5656 5655 5657 5659 5652 5655 5668 5661 5656 5649 5656 5655 5669 5681 5675 5671 5672 5681 5685 5695 5707 5740 5745 5727 5713 5721 5708 5716 5719 5720 5723 5719 5712
5526 5535 5547 5557 5566 5579 5580 5576 5577 5579 5598 5642 5642 5650 5650 5649 5643 5665 5669 5658 5652 5649 5657 5657 5671 5669 5669 5665 5668 5659 5692 5695 5699 5706 5675 5706 5668 5698 5693 5697 5713 5716 5715 5711 5704
5517 5525 5536 5542 5551 5565 5560 5563 5567 5568 5587 5635 5637 5650 5647 5636 5649 5660 5664 5657 5643 5649 5649 5650 5656 5656 5657 5661 5662 5661 5675 5675 5682 5687 5690 5686 5679 5700 5701 5687 5702 5705 5704 5702 5698
5509 5517 5523 5538 5548 5544 5548 5552 5557 5570 5575 5622 5631 5625 5626 5631 5634 5646 5645 5650 5650 5637 5646 5651 5664 5663 5658 5662 5666 5670 5656 5657 5662 5665 5652 5679 5682 5679 5702 5704 5698 5703 5698 5697 5693
5502 5509 5514 5521 5528 5530 5535 5547 5560 5554 5615 5605 5600 5610 5613 5616 5628 5628 5624 5620 5614 5609 5616 5633 5643 5657 5657 5643 5654 5652 5637 5617 5613 5623 5635 5686 5681 5691 5717 5728 5710 5706 5702 5697 5690
5489 5502 5509 5514 5512 5518 5526 5543 5531 5576 5574 5574 5580 5581 5583 5600 5613 5617 5616 5611 5620 5615 5613 5617 5622 5645 5655 5647 5636 5640 5636 5617 5599 5615 5635 5678 5665 5697 5720 5733 5731 5714 5705 5692 5683
5478 5498 5502 5499 5500 5505 5516 5525 5531 5536 5534 5537 5557 5572 5586 5597 5601 5604 5603 5604 5616 5620 5599 5604 5615 5651 5661 5657 5645 5639 5624 5653 5622 5629 5629 5652 5682 5708 5722 5718 5728 5718 5704 5696 5685
5464 5486 5488 5486 5488 5493 5508 5499 5516 5509 5511 5517 5524 5552 5554 5567 5567 5579 5581 5565 5566 5573 5574 5590 5584 5624 5642 5653 5653 5639 5644 5620 5629 5601 5602 5635 5651 5672 5703 5711 5720 5728 5711 5689 5685
5460 5480 5469 5476 5480 5490 5486 5493 5490 5491 5491 5494 5504 5510 5520 5531 5535 5545 5559 5528 5536 5548 5563 5567 5577 5593 5612 5623 5622 5624 5618 5624 5628 5629 5610 5611 5638 5685 5700 5715 5721 5726 5714 5695 5681
5444 5447 5452 5458 5455 5449 5454 5461 5459 5469 5474 5476 5481 5483 5491 5495 5508 5516 5531 5515 5516 5522 5526 5532 5539 5553 5583 5611 5624 5626 5623 5628 5604 5608 5624 5631 5635 5684 5697 5709 5707 5716 5706 5689 5682
5422 5431 5438 5443 5425 5422 5439 5448 5449 5444 5444 5447 5452 5461 5462 5465 5470 5501 5507 5487 5496 5497 5491 5499 5527 5536 5561 5579 5601 5604 5618 5623 5622 5622 5612 5607 5627 5679 5692 5695 5696 5701 5707 5696 5679
5400 5398 5411 5413 5413 5416 5418 5427 5427 5432 5425 5424 5426 5437 5440 5439 5449 5467 5478 5476 5474 5476 5471 5482 5499 5509 5523 5548 5570 5572 5594 5613 5614 5598 5605 5618 5631 5655 5672 5686 5692 5690 5699 5691 5662
5372 5375 5385 5385 5393 5396 5404 5401 5407 5406 5405 5406 5412 5415 5411 5407 5416 5428 5439 5439 5454 5461 5465 5469 5464 5483 5502 5516 5538 5547 5552 5568 5571 5587 5599 5616 5628 5651 5658 5671 5683 5691 5684 5668 5655
5348 5348 5358 5364 5383 5384 5383 5380 5386 5384 5379 5381 5383 5389 5386 5383 5390 5395 5398 5399 5410 5429 5436 5452 5450 5458 5470 5486 5496 5520 5542 5557 5571 5580 5597 5611 5624 5655 5662 5671 5671 5672 5664 5658 5656
5334 5338 5339 5346 5361 5371 5371 5373 5368 5369 5371 5370 5369 5367 5368 5373 5374 5376 5377 5378 5381 5387 5395 5400 5414 5423 5432 5463 5475 5476 5530 5550 5570 5582 5590 5590 5617 5642 5645 5651 5660 5661 5657 5655 5643